World > North America > United States > Illinois

Hourly Ferges, IL Regional Weather

Feedback E-mail the Weather

Quick WX

Ferges, IL Weather Maps

°F °C°F °C
Ferges Weather Map
UTC Time: 6/30/2022, 23:11
Your Time:

Ferges, IL Regional Weather

Expires:202207010000;;463723
ASUS43 KLOT 302309
RWRIL 

ILLINOIS REGIONAL WEATHER ROUNDUP
NATIONAL WEATHER SERVICE CHICAGO/ROMEOVILLE IL
600 PM CDT THU JUN 30 2022

NOTE: "FAIR" INDICATES FEW OR NO CLOUDS BELOW 12,000 FEET WITH NO
SIGNIFICANT WEATHER AND/OR OBSTRUCTIONS TO VISIBILITY.

* THESE STATIONS ARE NOT UNDER NWS QUALITY CONTROL. THEY ALSO MAY NOT
  REPORT WEATHER SUCH AS PRECIPITATION OR FOG.


ILZ064>066-069>071-074>076-080>082-084>086-088>090-092>094-010000-
SOUTH-CENTRAL ILLINOIS
  
CITY           SKY/WX    TMP DP  RH WIND       PRES   REMARKS
CARBONDALE     NOT AVBL                                               
EFFINGHAM*     SUNNY     89  61  39 SE7       30.02S HX  88           
MARION         SUNNY     90  70  51 S8        30.01F HX  95           
MT. VERNON     SUNNY    N/A N/A N/A S10       30.00F                  
CENTRALIA*     SUNNY     90  66  45 S13       29.99F HX  92           
SALEM*         SUNNY     91  64  40 S12       29.99F HX  92           
METROPOLIS*    MOSUNNY   89  71  55 S6        30.01S HX  94           
$$


SKY/WX - Weather  TMP - Temperature  DP - Dew Point  RH - Humidity
WIND - Wind Direction/Speed PRES - Barometric Pressure VSB - Visibility
WCI - Wind Chill Index E13G22 Wind - East Wind 13 mph/Gusts of 22 mph

Trending Headlines

Ferges Radar Loop



Ferges Quick Facts


National Two Day Weather Forecast


E-mail the Ferges Weather Forecast

Voice your opinion or tell us about page issues...